Location: Newark
(42.8481°N, 0.4872°E)
Time: 07:59:35
(UTC+00:00)

SR - Pass Details

Date: 09 November 2020
Orbit: 579 x 876 km, 66.7° (Epoch: 29 November)

Event Time Altitude Azimuth Distance (km) Brightness Sun altitude
Rises 09:40:46 0° 309° (NW) 3,184 ? 24.0°
Reaches altitude 10° 09:44:15 10° 284° (WNW) 2,322 ? 24.3°
Maximum altitude 09:46:52 14° 255° (WSW) 2,104 ? 24.5°
Drops below altitude 10° 09:49:34 10° 225° (SW) 2,404 ? 24.8°
Sets 09:53:18 0° 201° (SSW) 3,383 ? 25.1°
